Wind_Speed
19 18 17 16 15 14 13 13 12 11 11 11 12 12 13 14 16 18 19 20 21 21 21 21 22 22 23 24 24 25 26 26 27 27 28 28 27 26 24 22 21 20 19 17 16 15 16 17 18 18 17 17 16 16 16 16 16 17 18 18 18 18 18 18 18 18 18 18 18 17 18 18 18 19 19 20 20 21 21 21 21 21 21 21 20 20
16 15 14 13 12 11 10 10 10 10 10 11 11 11 11 13 15 17 18 20 20 21 21 21 22 23 24 25 25 26 27 28 28 28 28 27 25 23 22 21 20 18 17 15 15 16 17 17 18 17 17 17 16 16 16 17 18 19 19 19 19 19 19 19 19 19 19 19 19 19 19 20 20 20 20 21 21 20 20 19 19 18 18 18 17 17
13 13 12 11 9 8 7 8 9 9 9 10 10 10 10 11 13 15 18 19 20 21 22 22 23 24 25 25 26 27 28 29 29 28 27 24 22 20 19 18 17 16 15 15 16 16 17 17 17 17 17 17 17 17 18 18 19 20 20 20 20 19 19 19 19 19 19 19 20 20 20 20 20 19 19 19 19 18 17 16 16 16 15 15 15 14
11 11 10 9 8 6 6 6 7 8 8 9 9 10 10 11 13 15 16 18 20 21 21 22 23 24 25 26 27 28 28 28 27 25 23 20 19 18 17 16 15 15 15 16 16 17 17 17 17 17 17 17 18 18 19 20 20 20 20 19 19 19 19 19 19 19 19 19 19 18 18 18 17 17 17 16 16 15 15 14 14 14 15 14 14 14
8 8 8 8 7 6 5 5 5 6 7 8 9 9 10 12 13 14 16 17 19 20 21 21 22 23 24 25 26 26 26 24 23 20 18 17 16 16 15 14 15 15 15 16 16 16 16 17 17 17 18 18 19 20 20 20 20 19 19 19 19 19 19 19 19 19 19 18 17 17 16 15 15 14 14 13 13 13 13 13 13 14 14 14 14 14
7 7 7 7 6 5 5 5 5 6 6 7 8 10 11 12 13 14 16 17 18 19 20 21 21 22 22 22 22 22 20 19 17 16 15 15 14 14 14 14 14 15 15 15 16 16 16 17 17 18 19 19 20 21 21 20 20 19 19 19 19 19 20 19 19 18 17 16 15 15 14 13 13 12 12 12 12 12 12 12 12 13 13 13 13 13
7 7 7 7 6 6 6 6 6 6 7 7 8 9 10 11 12 14 15 15 16 17 17 18 18 18 18 18 17 16 16 15 14 14 13 13 13 13 13 14 14 14 14 15 15 16 17 18 19 19 20 21 21 21 21 21 21 20 20 20 20 20 20 19 18 17 16 15 14 13 12 12 11 11 11 11 11 11 11 11 11 12 12 12 13 13
7 7 7 7 6 6 6 6 6 7 7 8 8 9 10 11 12 12 13 13 14 14 14 14 14 14 14 14 14 13 13 13 13 13 12 12 12 12 12 13 13 13 14 15 16 17 18 19 20 21 21 22 22 23 23 22 22 22 22 21 20 19 18 17 16 15 14 13 13 12 12 11 11 11 11 11 11 11 11 11 11 12 12 12 13 13
7 7 7 6 6 6 6 6 6 6 7 7 8 8 9 10 10 11 11 11 11 12 12 11 11 12 12 12 12 12 12 12 12 12 12 12 12 12 12 13 13 14 15 16 17 19 20 21 21 22 22 23 23 23 23 23 23 22 21 20 18 17 16 15 14 13 13 12 12 11 11 11 10 10 10 11 11 11 11 12 12 12 12 13 13 13
6 6 6 6 6 5 5 5 6 6 6 6 7 8 8 9 9 10 10 10 10 11 11 11 10 11 11 12 12 11 11 12 12 12 12 12 12 12 13 13 14 15 16 18 19 20 21 22 23 23 23 23 23 23 23 22 21 20 18 17 15 14 14 13 13 12 12 11 11 11 10 10 10 11 11 11 11 12 12 12 13 13 13 13 14 14
6 6 5 5 6 6 5 5 5 6 6 7 7 8 8 9 9 9 10 10 10 10 10 11 11 10 11 11 11 11 11 11 12 12 12 12 13 13 14 15 16 17 18 19 20 22 23 23 23 23 23 23 23 22 21 20 19 17 16 14 14 13 13 13 12 12 11 11 11 10 11 11 11 11 11 11 12 12 13 13 13 13 14 14 14 14
6 6 6 6 6 6 6 6 6 7 7 7 8 8 9 9 9 10 10 10 10 10 10 10 11 11 11 11 11 11 11 12 12 12 12 13 14 14 15 16 17 18 19 20 22 23 24 24 24 24 23 22 21 20 19 18 17 15 14 13 13 13 12 12 11 11 11 11 11 11 11 11 11 11 11 12 12 13 13 13 14 14 14 14 14 14
7 7 7 7 7 7 7 7 8 8 8 9 8 8 9 9 10 10 10 10 10 10 10 11 11 11 11 11 12 12 12 12 13 13 14 14 15 16 17 18 19 20 20 22 23 24 25 25 25 24 23 21 20 18 17 16 15 14 13 13 13 12 12 12 11 11 11 11 11 11 11 11 12 12 12 12 13 13 14 14 14 15 15 15 15 15
8 8 8 8 7 7 8 8 8 8 9 9 9 9 10 10 11 11 11 11 11 11 11 11 11 11 11 11 12 12 13 13 14 15 15 16 17 18 18 19 20 21 21 22 23 24 25 25 25 24 22 20 18 16 15 14 14 13 13 13 13 12 12 11 11 11 11 11 11 12 12 12 12 12 13 13 14 14 14 15 15 15 16 16 16 16
9 8 8 8 8 8 8 8 8 9 9 9 10 10 10 11 11 11 10 10 10 11 11 11 11 12 12 12 12 13 14 15 16 16 17 18 18 19 20 21 22 22 22 23 24 24 25 25 24 22 20 18 16 15 14 13 13 13 13 13 12 12 12 12 11 11 12 12 12 12 13 13 13 13 14 14 15 15 15 16 16 17 17 17 17 17
9 9 8 8 8 8 8 8 8 8 9 10 10 10 10 10 11 11 11 11 11 11 11 11 12 12 13 13 13 14 14 16 17 18 19 19 20 20 21 22 23 23 23 23 23 23 24 23 22 20 18 16 15 14 13 13 13 13 13 12 12 12 12 12 12 12 12 13 13 13 13 14 14 15 15 15 16 16 17 17 17 18 18 18 18 18
9 9 8 8 8 8 8 8 8 9 9 10 10 10 11 11 11 11 12 12 12 12 13 13 12 13 14 14 15 15 16 17 18 20 21 21 21 21 22 22 23 23 23 22 22 22 22 21 19 18 16 15 14 13 13 13 13 13 13 13 12 12 13 13 13 13 13 13 14 14 15 15 16 16 16 17 17 18 18 18 19 19 19 19 19 19
9 8 8 8 7 8 8 8 9 9 10 10 10 11 11 12 12 12 13 13 13 13 14 14 15 15 14 14 16 18 18 18 20 22 23 23 23 22 22 22 22 22 22 21 20 20 20 19 18 16 15 14 13 13 13 13 13 13 13 13 13 13 13 13 14 14 14 15 15 16 16 17 17 18 18 19 19 19 20 20 20 20 20 20 20 21
10 9 9 8 9 9 9 9 9 10 10 11 11 12 12 13 13 13 14 14 15 15 15 16 17 17 17 17 19 21 21 21 22 23 24 24 23 22 21 20 20 20 19 18 18 18 18 17 16 15 14 14 13 13 13 13 13 13 13 13 13 14 14 14 15 15 15 16 16 17 18 18 19 19 20 20 20 21 21 21 21 21 21 21 21 21
10 10 10 10 10 10 10 10 10 11 11 12 13 13 14 14 14 15 15 16 16 17 18 18 18 19 19 20 21 22 22 22 23 24 25 25 23 21 19 18 18 18 16 15 15 16 16 16 15 15 14 13 13 13 13 13 13 13 14 14 14 14 15 15 16 16 17 17 18 19 19 20 20 21 21 21 21 22 22 22 22 22 22 22 22 22
10 10 10 10 10 11 11 12 12 12 12 13 14 14 15 16 16 16 17 17 18 19 19 19 20 21 21 21 22 23 23 23 24 25 25 25 22 19 17 17 16 16 14 13 13 15 15 15 15 14 14 13 13 13 14 14 14 14 14 15 15 15 16 16 17 17 18 19 20 20 21 21 21 22 22 22 22 22 22 22 22 22 23 23 23 23
10 10 11 11 11 11 12 13 13 13 13 13 14 14 15 16 16 17 18 18 19 19 20 20 21 21 22 22 22 22 22 22 23 24 24 24 22 19 16 15 15 14 13 12 13 14 15 15 15 14 14 14 14 14 14 15 15 15 15 15 16 16 17 17 18 19 20 20 21 21 22 22 22 23 23 23 23 23 23 23 23 23 24 24 24 24
12 12 12 12 12 12 13 13 13 13 13 13 13 14 15 15 16 16 17 18 18 19 20 20 20 20 20 20 20 20 20 20 21 21 22 23 21 18 16 15 14 14 13 12 13 14 15 15 15 15 14 15 15 15 15 15 15 16 16 16 17 17 18 19 19 20 21 21 22 22 23 23 23 23 23 23 24 24 24 24 24 24 25 25 25 25
13 13 13 13 13 13 14 14 14 14 14 15 15 15 15 15 16 16 16 17 17 18 18 18 18 18 18 18 18 18 18 18 18 19 20 20 20 18 15 14 14 14 13 13 13 14 14 15 15 15 15 15 16 16 16 16 16 16 17 17 18 18 19 20 21 21 22 22 23 23 23 23 23 23 24 24 24 24 25 25 25 26 26 26 26 27
14 14 14 14 14 15 15 15 15 15 16 16 16 16 16 16 16 16 16 16 17 17 17 17 17 16 16 15 14 14 14 15 15 16 18 19 18 17 15 14 14 14 13 12 13 13 14 14 14 14 15 16 17 17 17 17 17 17 18 18 19 19 20 21 21 22 22 23 23 23 23 23 23 24 24 24 24 25 25 26 26 27 27 27 28 28
14 14 14 15 15 15 15 15 15 16 16 17 17 17 17 18 18 17 17 17 17 17 17 17 17 16 15 14 13 13 13 13 13 15 16 17 17 16 14 14 14 14 14 12 12 12 13 13 13 14 15 16 17 17 17 17 17 18 18 19 20 20 21 21 22 22 22 22 22 23 23 23 23 24 24 24 25 25 25 26 26 27 28 28 29 29
14 14 15 15 15 15 15 15 15 16 16 17 17 17 18 18 18 18 18 18 18 18 19 19 18 17 16 15 14 13 13 12 12 13 14 15 15 15 14 14 14 14 14 13 12 12 12 13 13 14 15 16 17 17 17 18 18 18 19 20 20 21 21 22 22 22 22 22 22 22 23 23 23 23 24 24 25 25 26 26 27 27 28 29 29 30
15 15 15 15 16 16 16 16 16 16 16 15 15 16 18 19 19 19 19 19 19 19 19 19 19 18 17 16 15 13 12 12 12 12 13 14 14 14 14 14 15 15 15 14 12 12 12 12 13 14 15 16 17 17 18 18 18 19 19 20 20 21 21 21 22 22 22 22 22 22 22 23 23 23 24 24 25 25 26 26 27 27 28 29 30 30
15 16 16 16 16 17 17 17 16 16 15 15 15 17 18 19 19 19 19 18 18 18 18 18 18 17 17 16 15 14 12 11 11 11 12 13 14 15 15 15 15 15 15 15 13 12 11 12 13 14 15 15 16 17 17 17 18 18 19 19 20 21 21 21 22 22 22 22 22 22 22 23 23 23 24 24 25 25 26 26 27 27 28 29 30 31
16 16 16 17 17 18 18 18 17 16 16 15 15 16 16 17 17 17 17 17 17 17 17 17 16 16 16 16 15 14 13 11 10 11 12 14 16 16 16 15 15 15 15 16 15 14 12 11 12 12 13 14 14 15 16 16 17 17 18 19 20 20 21 21 21 21 21 21 22 22 22 22 23 23 24 24 25 26 26 26 27 28 29 30 30 31
16 16 16 17 17 18 18 18 18 17 16 15 15 15 15 15 15 16 16 16 16 16 16 16 15 15 14 14 15 15 14 12 11 11 12 15 17 17 16 15 15 15 15 15 16 16 15 13 11 11 11 12 13 14 15 16 16 17 18 19 19 19 20 20 20 20 21 21 21 22 22 22 23 24 24 25 26 26 26 27 27 28 29 30 31 31
15 15 16 16 17 17 18 18 17 16 16 15 14 14 14 14 14 15 15 15 15 15 15 15 14 14 13 13 14 14 14 14 13 13 13 15 16 17 16 15 15 15 14 15 16 16 15 16 15 14 13 14 14 14 15 16 17 18 18 18 18 18 19 19 20 20 21 21 21 22 22 23 24 24 25 26 26 27 27 27 28 28 29 30 31 31
13 14 14 15 16 16 17 17 16 15 15 15 14 14 14 14 14 14 14 14 14 14 14 14 13 13 13 13 13 13 13 13 13 13 14 15 16 17 16 16 15 15 15 15 15 16 16 19 19 18 16 16 15 16 16 16 17 18 18 18 19 19 19 20 21 21 22 22 22 23 23 24 24 25 26 26 27 27 27 27 28 28 29 30 30 31
11 12 13 14 15 15 16 16 15 15 14 14 14 14 14 13 13 13 13 13 13 13 13 12 12 12 12 13 13 13 13 13 13 14 14 15 16 17 16 16 16 16 16 16 16 17 18 19 19 20 19 18 17 17 17 18 18 19 19 20 20 21 21 21 22 22 23 23 23 23 23 24 24 25 25 26 26 26 26 26 27 27 28 29 29 30
10 11 12 13 14 15 15 15 15 14 14 14 14 13 13 13 13 12 12 12 12 12 11 11 12 12 12 13 13 13 13 12 13 14 14 15 16 17 17 17 16 16 17 17 17 18 19 19 20 21 21 21 20 19 19 19 20 20 21 21 22 22 22 23 23 24 24 24 24 23 23 23 23 23 23 24 24 24 24 25 25 25 26 27 28 29
11 12 12 13 13 14 14 14 14 14 13 13 13 13 12 12 12 12 12 11 11 11 11 11 11 12 12 13 14 14 13 13 13 13 14 15 16 17 17 17 17 17 17 18 18 19 20 21 21 22 23 23 23 22 21 21 22 22 22 22 23 23 24 24 24 25 25 24 24 23 22 22 22 21 21 21 21 21 22 22 23 23 24 25 26 27
12 12 12 12 13 13 13 13 13 13 13 12 12 12 12 12 11 11 11 11 11 11 11 11 11 12 13 13 14 14 13 13 13 13 14 14 15 16 17 17 16 16 17 18 18 19 20 21 22 23 24 25 26 26 26 25 25 24 24 24 25 25 25 25 25 25 25 24 24 23 22 21 20 19 18 18 18 19 19 20 21 21 22 23 23 24
12 12 11 12 12 12 12 12 12 12 12 12 12 11 11 11 11 11 11 11 11 11 11 11 12 13 13 14 14 14 14 14 14 14 14 14 15 16 16 16 16 16 16 17 18 19 20 21 23 24 25 26 27 28 28 28 28 28 27 27 26 26 26 26 25 25 25 24 23 22 21 19 18 17 16 16 16 17 17 18 18 19 20 20 21 22
11 11 11 11 11 11 11 11 11 11 11 11 11 11 11 11 11 11 11 11 11 11 11 12 12 13 14 14 14 15 15 15 15 15 15 15 15 16 16 16 16 16 16 17 18 19 20 21 22 24 26 27 29 29 30 30 30 30 30 29 28 27 26 26 26 25 25 24 23 21 20 18 17 16 15 15 15 16 17 17 18 18 19 19 20 21
11 11 11 11 11 11 11 11 11 11 11 11 11 11 11 11 11 11 11 11 11 11 12 12 13 14 14 14 14 15 15 16 16 16 16 16 16 16 16 16 16 16 16 17 18 19 20 21 23 24 26 28 29 30 31 31 31 31 31 31 30 29 27 26 26 25 24 23 22 21 19 18 17 16 16 16 16 16 17 18 18 19 19 20 21 22
11 11 11 11 11 11 11 11 11 11 11 11 11 11 11 11 11 11 11 11 11 12 12 13 14 14 14 15 15 15 15 16 16 16 16 16 16 15 15 16 16 16 17 18 19 20 21 22 23 25 27 28 29 31 32 31 31 31 31 31 31 29 28 26 25 24 23 21 21 20 19 19 18 18 18 18 18 18 18 19 19 20 20 21 22 23
11 11 11 11 11 11 11 11 11 11 11 11 11 11 12 12 12 11 11 11 11 12 13 14 15 15 15 15 15 15 16 16 16 16 16 15 15 15 15 15 16 17 18 19 20 22 23 24 25 26 27 28 29 30 31 31 31 30 30 30 29 29 27 25 24 22 22 21 20 20 19 20 20 20 20 20 20 20 20 20 20 21 21 22 23 23
11 11 11 11 11 11 11 11 11 11 11 11 11 11 12 12 12 12 12 11 12 12 14 15 15 16 16 15 15 15 15 16 16 15 15 15 14 14 15 15 16 17 19 20 21 22 24 25 26 27 27 28 29 30 31 31 30 29 28 28 28 28 28 26 23 22 21 21 20 20 20 20 21 22 22 23 23 23 22 23 23 23 23 24 24 25
10 10 11 11 11 11 11 11 11 11 11 11 11 12 12 12 12 12 12 12 13 13 14 15 16 16 16 16 15 14 14 14 14 14 14 14 14 14 15 16 17 18 20 21 22 23 25 26 27 27 27 27 28 29 30 30 29 28 27 26 26 26 27 25 24 22 22 21 21 21 21 22 23 23 24 25 25 25 25 25 25 26 26 26 26 26
10 10 10 11 11 11 11 11 11 11 11 11 11 12 12 12 13 13 13 13 13 14 15 16 17 17 17 16 15 14 14 12 12 12 12 13 14 15 16 17 18 20 21 22 23 24 25 26 27 27 27 27 27 28 28 28 28 27 26 25 24 24 24 24 23 23 23 22 22 22 22 23 24 25 26 27 27 27 27 28 28 28 28 28 28 28
10 10 10 10 11 11 11 11 11 11 11 11 11 11 12 13 13 13 14 14 15 15 16 16 17 17 18 17 16 15 14 12 12 11 11 12 14 15 16 18 19 20 22 23 24 25 26 26 26 26 26 26 27 27 27 27 27 26 26 24 24 24 24 23 23 23 23 23 23 23 23 24 25 27 28 29 30 30 30 30 30 30 30 30 30 29
10 10 10 10 11 11 11 11 11 11 11 11 11 11 12 13 13 14 14 15 15 16 16 17 17 17 17 17 16 15 14 13 12 12 12 12 13 15 16 18 19 20 22 23 24 25 26 25 25 24 24 25 26 26 26 25 25 25 24 24 23 23 24 24 24 24 24 24 24 25 25 26 27 29 30 31 32 32 32 31 31 31 31 31 30 30
10 10 10 11 11 11 11 11 11 11 11 11 11 12 12 13 14 14 15 16 16 16 17 17 17 17 17 17 16 15 15 15 14 14 14 14 14 15 16 17 19 20 22 23 24 24 24 24 24 23 23 23 24 25 25 24 23 23 23 23 23 24 25 25 25 25 25 25 25 26 27 28 29 30 31 33 33 34 33 33 32 31 31 30 30 29
11 11 11 12 12 12 12 12 12 12 12 12 12 12 12 13 14 15 15 16 16 17 17 17 17 17 17 16 16 16 16 16 16 16 16 16 16 17 18 19 20 20 21 22 22 23 23 23 23 23 22 21 22 23 23 23 22 22 22 23 23 24 26 26 26 26 26 26 27 27 28 29 30 31 31 33 34 35 35 34 33 32 31 30 29 28
12 12 12 13 13 13 13 13 13 13 13 13 13 13 13 13 14 15 15 16 16 17 17 17 17 17 17 17 17 17 17 18 18 18 18 18 18 19 20 20 21 21 22 22 22 22 23 23 23 23 22 20 20 20 21 22 22 22 23 23 24 25 26 27 27 27 27 28 29 29 30 31 31 31 31 32 34 35 36 35 34 32 31 30 29 28
13 13 13 13 14 14 14 14 14 14 13 13 13 13 13 14 14 14 15 15 16 16 16 17 17 18 18 18 18 18 19 19 19 19 19 19 19 20 21 21 21 21 21 21 22 22 23 23 24 23 22 20 18 18 18 20 21 23 24 25 25 25 25 27 27 28 28 29 30 31 32 32 32 32 31 31 33 34 35 36 35 33 31 29 29 28
Wind_Direction
306 308 309 310 312 313 315 319 323 327 326 323 319 312 300 286 275 267 262 259 258 257 258 258 259 259 259 259 259 261 264 268 271 276 279 281 282 281 278 275 272 270 268 267 267 269 271 274 276 278 280 282 284 285 286 288 288 288 288 286 284 281 278 276 274 273 271 270 268 267 265 263 261 260 260 260 261 262 262 262 261 261 260 261 261 263
308 309 310 313 314 317 323 326 328 329 326 321 317 312 304 291 279 272 267 263 260 259 258 257 256 256 256 257 259 263 266 270 274 278 280 280 279 277 273 270 268 266 265 265 266 269 271 274 277 279 281 282 284 285 287 288 287 287 286 284 282 280 278 276 275 274 273 271 270 269 268 266 265 264 264 265 265 266 267 267 266 264 264 263 263 264
310 311 313 317 321 326 335 333 330 326 322 318 314 310 302 290 281 274 270 266 264 263 262 261 261 261 262 264 266 269 271 274 276 278 277 276 274 271 268 266 265 264 264 265 267 270 272 275 277 279 281 283 284 286 286 286 285 285 284 283 282 280 279 278 277 276 275 274 273 273 272 271 270 270 269 269 269 269 269 268 267 265 263 262 262 262
312 313 317 322 329 336 342 338 329 321 317 313 309 304 296 285 277 273 271 268 267 266 267 267 268 269 270 271 272 274 275 275 276 275 273 271 268 266 265 265 265 265 266 268 270 272 274 275 277 279 281 283 284 285 285 285 284 284 283 282 281 279 278 277 276 276 276 275 275 275 276 276 276 275 273 271 270 268 266 264 262 261 259 259 259 259
316 318 323 328 333 338 339 333 321 312 306 302 298 293 288 281 276 274 273 271 270 270 271 272 272 273 274 274 274 274 274 274 273 271 269 267 266 266 265 266 266 267 268 269 271 272 274 275 276 278 280 281 283 284 285 284 283 282 280 279 277 275 274 273 273 274 274 275 277 278 279 279 279 277 275 272 269 266 263 260 258 258 257 258 259 259
324 326 331 334 336 335 330 322 312 303 298 294 290 286 284 281 279 276 274 274 274 274 274 274 275 275 274 274 273 273 272 270 269 268 267 266 266 265 265 264 265 266 267 268 270 271 272 273 275 277 279 281 283 283 283 282 280 278 275 273 271 270 270 271 272 274 276 277 279 280 280 280 278 276 273 271 269 267 264 262 260 259 259 259 260 260
334 336 340 341 338 332 326 319 312 306 301 296 292 287 285 283 281 279 278 277 277 277 276 276 275 274 273 272 271 270 269 268 268 267 267 267 266 264 263 263 263 264 266 268 269 271 272 273 275 277 279 281 282 282 281 279 277 274 272 270 270 270 271 273 275 277 279 280 280 279 278 276 274 272 270 269 267 267 266 265 264 263 263 263 263 262
341 342 345 343 339 332 324 318 314 311 306 300 295 291 287 284 282 281 280 279 278 277 276 275 274 272 271 270 270 269 270 270 270 269 267 266 264 263 262 262 264 265 267 269 270 272 273 275 276 278 280 281 282 281 280 278 277 275 274 273 273 273 275 276 277 278 278 277 276 275 273 271 269 267 266 266 265 265 265 265 265 265 266 266 266 266
347 345 343 341 336 327 320 316 314 312 307 301 296 293 290 286 284 282 280 278 277 275 274 273 272 271 270 270 271 272 272 272 270 268 266 264 263 262 264 265 267 269 270 271 272 274 275 277 278 280 281 281 281 281 280 279 278 277 277 276 276 275 276 276 275 274 273 272 271 270 268 267 266 265 265 265 266 266 267 267 268 268 268 268 269 269
348 347 342 336 331 326 318 311 308 306 302 296 292 289 288 287 285 284 281 279 276 275 274 273 272 272 272 273 273 273 273 272 270 268 266 266 267 268 269 271 272 273 274 274 275 276 278 279 280 280 281 281 281 280 279 279 278 278 276 275 274 273 272 272 271 270 269 268 267 267 266 266 266 266 267 268 269 271 271 272 273 272 272 272 271 272
340 338 335 328 323 318 313 304 299 297 295 291 288 285 284 282 281 281 280 278 276 276 276 274 272 271 271 271 272 271 269 267 268 269 269 270 271 273 274 275 275 276 277 278 279 280 281 282 282 282 282 282 281 280 279 278 277 276 274 272 271 270 269 268 268 267 267 267 267 267 267 268 268 269 271 272 273 274 275 276 277 276 276 275 274 273
327 324 322 317 312 307 303 298 294 291 288 285 283 281 280 277 275 274 273 272 271 271 271 271 271 269 268 267 267 267 266 266 269 272 274 275 276 277 278 278 279 280 281 283 284 285 286 286 286 286 285 284 283 281 279 277 275 273 271 270 268 268 267 267 266 266 267 268 268 269 270 271 272 273 274 275 276 277 278 279 279 279 278 277 276 275
317 315 313 308 303 298 293 290 287 284 281 278 274 272 271 273 273 271 269 267 266 266 265 265 266 267 267 266 267 270 272 274 276 277 279 280 280 281 281 282 282 284 285 286 287 288 288 288 288 288 287 286 283 280 277 275 272 270 269 268 268 267 267 267 267 268 269 270 271 272 273 274 275 276 277 277 278 279 280 280 281 281 281 280 279 278
313 311 307 301 295 291 287 285 282 279 277 275 273 271 270 271 271 271 270 268 268 267 266 266 268 272 274 274 275 277 281 283 283 283 283 283 283 283 284 285 285 286 287 287 287 287 287 287 287 287 287 285 282 278 275 272 270 268 268 268 267 267 268 268 270 271 272 273 274 275 276 277 278 279 279 280 280 281 282 282 283 283 283 282 282 281
309 308 304 297 290 287 285 284 282 279 277 277 276 275 274 273 273 274 273 273 275 276 276 278 280 282 284 285 286 287 286 286 285 284 284 283 283 285 286 286 286 287 287 287 286 286 285 285 285 286 285 283 280 276 272 270 268 268 268 268 268 269 270 271 273 274 275 276 277 278 279 281 281 282 282 283 283 283 283 283 283 283 283 283 282 281
306 305 301 296 291 288 286 285 284 282 281 281 280 280 280 280 280 281 281 282 283 285 287 287 289 290 289 287 286 286 285 284 284 283 283 282 283 285 286 287 287 287 287 287 286 285 284 283 284 284 283 281 278 274 272 270 269 268 268 269 270 271 272 273 275 276 277 278 279 281 282 283 284 285 285 285 285 284 284 284 283 283 282 282 281 280
301 299 296 294 290 287 286 286 284 283 283 283 283 283 283 283 284 285 285 285 286 287 287 286 287 288 289 289 285 281 281 282 282 283 283 283 284 285 286 288 288 288 288 286 285 284 283 283 283 282 281 279 276 274 272 270 270 269 269 270 270 272 273 274 276 277 279 281 282 284 285 286 287 287 287 286 286 285 284 283 282 282 281 280 279 278
294 291 289 287 284 281 281 281 281 281 281 280 281 280 280 280 281 282 282 283 283 284 284 283 282 282 284 287 285 281 281 282 283 284 285 284 284 286 288 289 289 288 287 286 284 282 281 281 280 280 278 277 275 274 272 270 270 269 269 270 271 272 274 275 277 279 282 284 285 287 288 288 287 287 286 285 285 284 283 282 281 280 279 278 277 276
287 285 282 279 278 277 277 276 276 277 277 277 277 277 276 276 276 276 276 276 277 278 280 282 282 281 281 281 281 282 284 285 287 287 287 286 286 287 290 290 289 287 285 284 282 280 279 279 278 277 276 276 275 273 272 270 270 270 270 271 272 274 275 277 280 282 284 286 287 287 287 287 286 285 285 284 283 282 282 281 280 279 278 278 277 276
284 280 276 275 276 277 276 275 275 276 275 275 276 275 273 273 273 272 272 273 273 274 275 277 279 280 280 280 281 283 286 289 290 290 289 288 288 290 293 292 289 285 283 281 278 277 277 276 276 276 275 275 274 273 272 271 270 271 271 273 274 275 277 279 281 283 284 285 286 285 285 284 284 283 283 282 282 281 281 280 280 279 279 278 277 277
284 278 276 275 275 275 275 275 275 275 275 275 276 275 273 273 273 272 273 273 274 274 275 275 276 278 280 281 283 286 289 292 292 292 291 290 291 292 295 292 288 284 281 277 274 273 273 273 274 274 275 274 273 272 271 271 271 272 273 274 275 277 278 280 281 282 283 283 283 282 282 282 281 281 281 281 281 281 281 281 281 280 280 280 279 278
286 281 278 276 274 274 275 275 276 276 275 275 276 276 275 276 276 275 276 276 276 276 276 277 278 279 282 284 286 289 292 294 294 293 293 292 293 294 296 293 288 283 279 274 270 269 269 271 273 273 274 273 272 271 270 270 271 272 273 274 275 277 278 279 280 280 280 280 280 279 279 279 279 279 280 280 281 282 282 282 282 282 281 281 280 280
290 287 284 283 281 279 278 278 279 280 281 281 281 281 281 281 281 281 281 281 281 281 281 281 283 285 287 289 291 294 296 296 294 293 293 293 294 296 297 294 289 284 279 273 268 266 267 269 271 272 272 271 269 268 268 269 270 271 272 274 275 276 277 278 278 278 278 277 277 277 277 278 278 279 280 281 282 282 283 283 283 283 283 282 281 281
294 292 291 291 291 290 289 290 291 292 293 293 291 290 290 290 290 289 289 289 289 289 289 290 291 292 294 296 297 298 298 297 296 295 294 294 295 297 299 297 292 286 280 274 270 267 266 267 268 269 268 267 266 266 266 267 268 270 271 273 274 275 276 276 276 276 276 276 276 276 277 278 279 280 281 281 282 283 283 283 283 283 283 282 282 281
296 297 297 297 298 299 299 300 301 301 301 300 301 301 301 301 299 298 298 297 298 298 299 298 298 299 301 302 301 300 299 298 297 296 296 295 296 298 301 300 295 289 282 276 272 270 269 267 265 264 263 263 263 264 264 266 267 269 271 273 274 274 275 275 275 275 275 275 276 277 277 278 279 280 281 282 282 283 283 283 283 283 283 283 282 282
296 297 297 298 298 299 299 300 300 301 301 302 304 305 304 303 303 302 302 303 305 305 305 304 304 305 307 305 303 302 301 301 299 297 297 297 298 300 303 300 296 291 285 279 275 272 270 267 263 259 258 258 260 262 264 265 267 269 271 272 273 274 274 274 274 275 276 276 277 278 278 279 280 281 281 282 283 283 283 284 284 284 283 283 282 282
291 292 292 293 294 294 294 294 294 295 297 300 303 303 301 301 301 302 302 305 307 308 307 307 307 309 309 308 307 306 306 307 304 299 297 298 300 302 303 301 297 293 289 283 277 273 270 267 262 258 256 256 258 261 263 265 267 269 270 272 272 273 273 274 275 276 276 277 278 279 280 280 281 282 283 283 284 284 285 284 285 284 284 283 282 282
289 289 289 290 291 291 290 290 291 291 293 295 294 292 293 296 297 297 299 303 305 305 303 304 306 308 310 311 310 308 309 311 309 304 300 301 302 303 303 301 299 296 292 287 279 273 270 268 264 260 257 257 258 260 262 264 266 268 269 270 272 272 273 275 275 277 278 278 279 280 281 282 283 284 285 285 285 285 285 285 285 285 284 283 282 282
290 290 290 290 290 290 290 290 291 291 292 292 289 287 289 293 296 297 299 301 301 299 299 301 304 306 309 309 308 307 309 310 309 307 304 303 303 303 303 303 302 300 297 292 284 275 271 269 266 262 260 259 259 261 262 264 266 268 269 271 273 274 276 277 278 279 280 280 281 282 283 284 284 285 285 286 286 286 286 286 285 284 284 283 282 282
288 289 289 289 290 290 291 291 292 293 293 293 290 289 290 293 294 295 296 297 297 296 297 299 301 303 305 306 305 306 309 310 310 310 308 305 304 303 303 304 304 304 303 301 295 287 280 273 268 264 262 261 261 262 263 265 267 269 272 274 276 278 279 280 280 281 282 282 283 283 284 284 285 285 285 285 285 285 285 285 285 284 284 283 283 283
284 284 285 286 287 288 289 291 293 294 295 295 293 291 291 290 291 292 293 294 294 294 295 296 298 299 301 302 303 304 307 310 313 313 308 304 303 303 304 305 306 306 307 307 306 302 295 287 277 270 269 268 267 267 267 269 271 272 274 275 277 278 279 280 281 281 282 282 283 284 284 284 285 285 285 285 285 285 285 285 285 284 283 283 283 282
281 282 282 283 284 286 287 290 292 294 295 295 294 292 291 290 289 289 290 291 292 293 293 294 295 296 297 298 299 301 305 309 313 314 308 303 302 303 304 306 306 307 308 307 307 306 302 297 290 283 280 278 277 275 274 274 275 276 276 277 277 278 279 281 282 283 283 284 285 285 286 286 286 286 286 286 286 285 285 284 283 283 282 282 281 281
281 281 281 282 283 285 287 290 292 293 294 294 293 292 291 289 288 288 288 288 289 290 291 292 293 294 295 296 297 300 305 310 313 312 308 303 302 303 305 306 307 307 308 306 304 301 299 298 295 291 287 285 283 282 281 281 282 282 283 283 283 283 284 285 286 287 287 288 288 289 289 289 289 288 288 287 286 285 284 282 281 280 280 279 279 279
283 280 280 280 282 284 286 288 290 291 292 291 291 290 289 288 288 287 286 286 286 287 289 290 292 293 295 296 298 302 307 311 312 310 307 303 302 303 305 307 308 309 308 307 304 302 299 298 297 296 293 290 288 288 290 290 290 290 291 292 292 291 291 291 291 291 291 292 292 292 292 292 291 289 288 287 285 284 282 281 279 278 277 276 276 276
284 280 279 278 279 280 283 285 287 288 289 289 289 288 288 288 287 287 286 286 285 285 286 288 290 293 295 297 299 303 308 310 309 307 307 305 304 304 305 306 308 309 308 307 306 305 303 301 301 301 300 296 294 294 296 297 298 298 298 298 297 296 295 295 295 294 294 294 294 294 294 293 292 290 288 286 284 282 281 279 277 275 274 273 273 273
288 285 282 280 280 280 281 282 284 285 286 286 287 287 287 287 287 286 286 285 284 284 285 287 289 292 295 297 300 304 308 309 307 305 305 304 303 303 303 304 306 307 307 306 306 306 305 304 304 304 304 303 302 301 302 302 302 302 301 301 299 298 298 298 297 297 297 298 298 298 297 296 294 292 289 287 284 282 280 279 277 275 273 272 272 272
290 288 286 284 283 283 282 282 282 282 283 284 285 285 285 285 285 284 283 283 283 283 285 287 290 293 296 299 301 304 307 307 306 303 302 301 300 299 300 301 303 304 304 304 305 306 305 306 306 306 306 306 306 307 307 306 305 304 304 303 302 301 300 301 301 301 302 303 303 303 302 301 299 296 293 289 286 284 281 280 278 277 275 274 273 273
294 292 290 287 285 284 284 283 282 282 282 283 283 284 283 283 281 280 279 279 281 283 285 288 291 294 296 299 302 304 305 306 305 303 301 299 298 298 298 300 301 302 304 304 304 305 305 306 306 307 308 307 308 308 309 308 308 307 306 305 304 304 304 305 306 307 307 308 308 307 307 306 304 300 296 292 289 285 283 280 278 277 276 275 274 273
297 295 292 289 287 286 285 283 283 282 282 282 282 281 280 278 277 276 276 278 280 283 286 289 292 294 296 299 301 303 304 304 303 302 301 300 299 299 299 300 302 303 304 305 305 305 305 305 305 306 307 307 308 308 308 308 308 308 308 307 306 307 308 309 310 311 311 311 311 311 310 309 308 304 301 296 292 289 286 283 281 279 278 276 275 274
298 295 293 290 288 286 285 284 283 283 281 280 279 278 277 275 274 274 275 278 280 284 287 289 291 293 295 297 298 300 301 301 301 300 300 300 300 300 300 301 303 305 306 306 305 305 305 305 305 305 306 306 307 307 307 308 308 309 309 309 310 311 312 312 312 313 313 313 313 313 313 312 311 308 305 301 297 293 290 288 286 284 283 282 282 280
298 295 292 290 289 288 287 286 284 283 281 279 278 277 276 275 274 275 276 278 282 285 287 288 290 291 292 294 296 298 299 299 299 299 300 300 300 301 302 303 304 306 306 305 305 304 304 304 305 305 305 306 306 306 307 307 308 309 309 310 311 312 312 312 313 314 315 314 315 315 315 314 312 310 306 302 299 296 294 292 290 289 287 285 285 285
296 294 291 290 289 289 288 286 283 282 280 279 278 277 275 275 275 276 277 278 280 283 286 287 289 290 292 294 297 299 300 300 300 300 300 300 300 301 302 304 304 305 305 304 304 304 304 304 304 304 304 305 305 306 306 307 308 308 309 310 311 312 311 312 314 315 315 314 314 315 315 314 313 310 307 304 301 299 297 296 294 293 292 290 289 288
294 292 290 290 289 288 287 285 283 282 280 279 277 276 275 276 277 277 277 277 278 281 283 286 288 290 291 294 296 297 298 298 299 299 298 298 299 300 302 303 304 304 303 303 303 303 303 304 303 303 304 305 305 304 305 306 308 308 309 310 312 312 312 313 314 314 313 313 314 315 316 315 313 311 308 306 304 302 301 300 298 297 296 295 294 293
292 290 289 288 287 286 284 283 282 281 280 279 277 276 276 276 277 278 278 279 280 282 284 286 288 289 291 293 295 296 296 296 296 296 296 296 297 299 300 301 302 303 303 302 302 302 303 303 303 303 304 304 303 303 304 306 308 309 310 311 311 310 309 311 313 314 314 314 315 317 317 316 314 312 309 307 305 304 304 303 302 301 300 299 298 298
291 289 288 287 287 285 283 282 281 281 280 280 278 276 275 276 277 279 280 282 284 285 287 289 290 292 293 296 298 299 298 296 294 293 294 295 297 298 299 301 302 303 303 302 302 301 301 301 302 303 304 303 302 301 302 304 307 309 310 311 310 309 308 309 312 314 316 316 317 318 318 317 315 313 310 308 307 307 306 305 305 304 303 303 302 301
289 288 287 287 286 285 284 283 282 280 279 278 276 274 274 276 278 280 282 284 286 288 289 291 293 295 297 299 301 301 299 295 292 290 291 294 296 297 299 300 301 302 302 302 302 301 300 300 301 302 303 302 301 301 302 304 306 308 309 310 310 309 309 310 312 314 316 317 317 318 318 317 316 314 312 310 309 308 307 306 306 306 305 305 304 304
288 287 286 285 284 284 283 282 280 278 277 275 273 271 272 274 278 280 283 285 287 289 291 292 294 295 297 300 301 300 297 294 290 287 288 290 292 294 296 298 299 300 300 300 300 300 300 300 301 300 300 300 300 301 303 304 305 307 309 310 309 309 309 310 312 314 315 316 317 318 319 318 316 314 312 311 310 308 307 307 306 306 305 305 305 305
287 286 285 284 283 282 281 280 278 277 275 273 269 268 269 273 276 279 282 285 287 289 291 293 294 295 297 298 298 298 296 294 291 289 288 289 290 290 292 294 296 297 297 298 297 297 297 297 297 297 298 299 300 302 304 306 307 307 308 308 309 309 310 311 313 315 316 316 317 318 318 316 315 313 312 311 309 308 307 307 306 305 305 305 305 305
286 285 285 283 283 282 281 280 278 276 274 272 269 266 267 271 275 279 282 285 288 290 292 293 294 294 295 296 296 295 295 294 292 291 290 291 291 291 292 294 295 296 296 295 295 295 295 296 297 298 299 301 302 304 306 308 308 309 308 308 308 309 310 312 313 315 316 316 316 316 315 314 312 311 310 309 309 308 307 307 306 305 305 305 306 306
285 284 284 283 283 282 281 280 278 277 275 274 271 269 268 270 274 277 281 284 287 289 291 291 292 293 294 294 294 294 295 295 294 294 295 295 295 296 298 299 299 300 299 299 299 300 301 303 303 303 303 304 305 305 306 308 309 309 308 308 308 309 310 311 313 314 315 315 314 314 313 312 311 311 309 307 307 307 307 307 306 305 305 306 306 306
284 284 284 284 283 282 282 280 279 278 277 276 275 274 273 274 275 277 280 282 285 287 288 289 290 291 293 294 294 295 296 297 298 299 299 299 300 301 302 303 303 304 305 306 308 309 312 312 310 307 306 306 307 308 306 307 308 308 307 307 308 309 309 309 311 313 313 313 313 312 311 311 310 309 307 305 304 304 304 305 305 305 305 305 305 305
Height
1504 1503 1502 1502 1501 1500 1500 1499 1499 1499 1499 1499 1499 1500 1501 1502 1503 1504 1504 1505 1506 1506 1507 1507 1507 1507 1508 1508 1508 1508 1508 1508 1509 1509 1509 1508 1508 1508 1507 1507 1507 1507 1507 1507 1507 1506 1506 1506 1506 1506 1507 1507 1507 1507 1507 1507 1507 1507 1507 1507 1508 1508 1508 1508 1509 1509 1509 1509 1509 1509 1509 1509 1509 1509 1509 1509 1509 1509 1510 1510 1511 1511 1511 1511 1511 1511
1502 1502 1501 1501 1500 1500 1499 1499 1498 1498 1499 1499 1499 1499 1500 1501 1502 1503 1504 1505 1506 1506 1507 1507 1507 1507 1507 1507 1507 1507 1507 1507 1507 1507 1507 1507 1506 1506 1506 1506 1505 1505 1505 1505 1505 1505 1505 1505 1505 1505 1506 1506 1506 1506 1506 1506 1506 1506 1506 1506 1506 1506 1506 1506 1507 1507 1507 1507 1507 1507 1507 1507 1507 1507 1507 1507 1507 1508 1508 1509 1509 1509 1509 1510 1509 1509
1501 1501 1500 1500 1500 1499 1499 1498 1498 1498 1498 1499 1499 1499 1500 1500 1501 1502 1503 1504 1504 1505 1505 1505 1505 1505 1505 1505 1506 1506 1506 1506 1506 1506 1505 1505 1505 1504 1504 1504 1504 1504 1504 1504 1504 1504 1504 1504 1504 1504 1504 1504 1504 1504 1504 1504 1504 1504 1504 1504 1504 1504 1504 1504 1505 1505 1505 1505 1505 1505 1505 1504 1504 1505 1505 1505 1506 1506 1507 1507 1508 1508 1508 1508 1508 1508
1500 1500 1499 1499 1499 1499 1499 1498 1498 1498 1498 1499 1499 1499 1499 1500 1500 1501 1502 1502 1503 1503 1503 1504 1504 1504 1504 1504 1504 1504 1504 1504 1504 1504 1504 1504 1504 1504 1503 1503 1503 1503 1503 1503 1503 1503 1503 1503 1503 1503 1503 1503 1503 1503 1503 1503 1503 1503 1503 1503 1503 1503 1503 1503 1503 1503 1503 1503 1503 1503 1503 1503 1503 1503 1504 1504 1504 1505 1505 1506 1506 1506 1506 1506 1507 1507
1500 1499 1499 1498 1498 1498 1498 1498 1498 1498 1498 1499 1499 1499 1499 1499 1500 1500 1501 1501 1501 1501 1502 1502 1502 1502 1502 1502 1503 1503 1503 1503 1503 1503 1503 1502 1502 1502 1502 1502 1502 1502 1502 1502 1502 1502 1502 1502 1502 1502 1502 1502 1502 1502 1501 1501 1501 1501 1501 1501 1501 1501 1502 1502 1502 1502 1502 1502 1502 1502 1502 1502 1502 1502 1502 1503 1503 1503 1504 1504 1504 1505 1505 1505 1505 1505
1499 1499 1498 1498 1498 1498 1498 1498 1498 1498 1498 1498 1499 1499 1499 1499 1499 1500 1500 1500 1500 1500 1500 1501 1501 1501 1501 1501 1501 1501 1501 1501 1501 1501 1501 1501 1501 1501 1501 1501 1501 1501 1501 1501 1501 1501 1500 1500 1500 1500 1500 1500 1500 1500 1500 1500 1500 1500 1500 1500 1500 1500 1500 1500 1500 1500 1500 1500 1501 1501 1501 1501 1501 1501 1501 1501 1502 1502 1503 1503 1504 1504 1504 1504 1504 1504
1499 1498 1498 1498 1497 1497 1497 1497 1498 1498 1498 1498 1498 1498 1499 1499 1499 1499 1499 1499 1499 1499 1499 1500 1500 1500 1500 1500 1500 1500 1500 1500 1500 1500 1500 1500 1500 1500 1500 1500 1500 1500 1500 1500 1500 1499 1499 1499 1499 1499 1499 1499 1499 1499 1499 1499 1499 1499 1498 1498 1498 1498 1499 1499 1499 1499 1499 1499 1499 1499 1499 1500 1500 1500 1500 1501 1501 1501 1502 1502 1502 1503 1503 1503 1503 1503
1498 1498 1498 1497 1497 1497 1497 1497 1497 1498 1498 1498 1498 1498 1498 1498 1499 1499 1499 1499 1499 1499 1499 1499 1499 1499 1499 1499 1499 1499 1499 1499 1499 1499 1499 1499 1499 1499 1499 1499 1499 1499 1499 1499 1499 1498 1498 1498 1498 1498 1498 1498 1498 1497 1497 1497 1497 1497 1497 1497 1497 1497 1497 1498 1498 1498 1498 1498 1498 1499 1499 1499 1499 1499 1499 1500 1500 1500 1501 1501 1501 1502 1502 1502 1502 1502
1498 1498 1498 1497 1497 1497 1497 1497 1497 1497 1498 1498 1498 1498 1498 1498 1498 1498 1498 1498 1498 1498 1498 1498 1498 1498 1498 1498 1498 1498 1498 1498 1498 1498 1498 1498 1498 1498 1498 1498 1498 1498 1498 1498 1497 1497 1497 1497 1497 1497 1496 1496 1496 1496 1495 1495 1495 1495 1495 1495 1496 1496 1496 1496 1497 1497 1497 1497 1497 1497 1497 1498 1498 1498 1499 1499 1499 1499 1500 1500 1500 1500 1501 1501 1501 1501
1498 1498 1497 1497 1497 1497 1497 1497 1497 1497 1497 1497 1497 1497 1497 1497 1497 1497 1497 1497 1497 1497 1497 1497 1497 1497 1497 1497 1497 1497 1497 1497 1497 1497 1497 1497 1497 1497 1497 1497 1497 1497 1496 1496 1496 1496 1496 1495 1495 1495 1495 1494 1494 1494 1494 1494 1494 1494 1494 1494 1494 1494 1495 1495 1495 1495 1495 1496 1496 1496 1496 1497 1497 1497 1498 1498 1498 1499 1499 1499 1499 1499 1499 1499 1499 1499
1498 1497 1497 1497 1497 1497 1497 1496 1496 1496 1496 1497 1497 1497 1497 1497 1497 1497 1497 1497 1496 1496 1496 1496 1496 1496 1496 1496 1496 1496 1496 1496 1496 1496 1496 1496 1496 1496 1495 1495 1495 1495 1495 1495 1495 1494 1494 1494 1494 1493 1493 1493 1493 1492 1492 1492 1492 1492 1493 1493 1493 1493 1494 1494 1494 1494 1494 1494 1495 1495 1495 1496 1496 1496 1497 1497 1497 1497 1498 1498 1498 1498 1498 1498 1498 1498
1497 1497 1497 1497 1496 1496 1496 1496 1496 1496 1496 1496 1496 1496 1496 1496 1496 1496 1496 1496 1496 1496 1495 1495 1495 1495 1495 1495 1495 1495 1495 1495 1495 1495 1494 1494 1494 1494 1494 1494 1494 1494 1494 1494 1493 1493 1492 1492 1491 1491 1491 1491 1491 1490 1490 1490 1491 1491 1491 1492 1492 1492 1492 1492 1493 1493 1493 1494 1494 1494 1494 1494 1495 1495 1495 1496 1496 1496 1496 1496 1496 1496 1497 1497 1497 1497
1497 1497 1496 1496 1496 1496 1496 1495 1495 1495 1495 1495 1496 1496 1495 1495 1495 1495 1495 1495 1495 1495 1495 1495 1495 1494 1494 1494 1494 1494 1494 1494 1494 1494 1493 1493 1493 1493 1493 1493 1493 1493 1492 1492 1491 1491 1490 1489 1489 1489 1489 1489 1489 1489 1489 1489 1489 1490 1490 1490 1490 1491 1491 1491 1491 1492 1492 1492 1493 1493 1493 1494 1494 1494 1494 1494 1495 1495 1495 1495 1495 1495 1495 1495 1495 1495
1496 1496 1496 1495 1495 1495 1495 1495 1495 1495 1495 1495 1495 1495 1495 1494 1494 1494 1494 1494 1494 1494 1494 1494 1494 1494 1494 1493 1493 1493 1493 1493 1492 1492 1492 1492 1492 1492 1492 1491 1491 1491 1491 1490 1490 1489 1489 1488 1487 1487 1487 1487 1488 1488 1488 1488 1488 1489 1489 1489 1489 1489 1490 1490 1490 1490 1491 1491 1492 1492 1492 1492 1493 1493 1493 1493 1493 1494 1494 1494 1494 1494 1494 1494 1494 1494
1495 1495 1495 1495 1494 1494 1494 1494 1494 1494 1494 1494 1494 1494 1494 1494 1494 1494 1494 1494 1493 1493 1493 1493 1493 1492 1492 1492 1492 1492 1492 1491 1491 1491 1491 1491 1491 1491 1490 1490 1490 1489 1489 1489 1488 1488 1487 1486 1486 1486 1486 1486 1486 1486 1487 1487 1487 1487 1488 1488 1488 1488 1489 1489 1489 1489 1490 1490 1490 1491 1491 1491 1491 1491 1492 1492 1492 1492 1492 1492 1492 1492 1492 1492 1492 1492
1494 1494 1494 1494 1494 1494 1493 1493 1493 1493 1493 1493 1493 1493 1493 1493 1493 1493 1493 1492 1492 1492 1492 1492 1491 1491 1491 1491 1491 1491 1491 1490 1490 1490 1490 1490 1490 1490 1489 1489 1488 1488 1488 1487 1487 1486 1485 1485 1484 1484 1485 1485 1485 1485 1485 1486 1486 1486 1486 1487 1487 1487 1487 1488 1488 1489 1489 1489 1489 1489 1490 1490 1490 1490 1490 1490 1490 1490 1490 1490 1490 1490 1490 1490 1490 1490
1494 1494 1493 1493 1493 1493 1492 1492 1492 1492 1492 1492 1492 1492 1492 1492 1492 1492 1491 1491 1491 1491 1491 1491 1491 1491 1490 1490 1490 1490 1490 1489 1489 1489 1489 1488 1489 1489 1488 1488 1487 1486 1486 1485 1485 1484 1484 1483 1483 1484 1484 1484 1484 1484 1484 1484 1485 1485 1485 1485 1486 1486 1486 1487 1487 1487 1488 1488 1488 1488 1488 1488 1488 1489 1489 1489 1489 1489 1489 1489 1489 1489 1489 1489 1489 1489
1493 1493 1493 1492 1492 1492 1492 1492 1491 1491 1491 1491 1491 1491 1491 1491 1491 1491 1491 1490 1490 1490 1490 1490 1490 1490 1490 1490 1489 1488 1489 1489 1488 1487 1487 1486 1487 1487 1487 1486 1485 1484 1484 1484 1483 1483 1482 1482 1482 1482 1483 1483 1483 1483 1483 1484 1484 1484 1484 1484 1485 1485 1485 1486 1486 1486 1486 1486 1486 1487 1487 1487 1487 1487 1487 1487 1487 1487 1487 1487 1487 1487 1487 1487 1487 1487
1492 1492 1492 1492 1491 1491 1491 1491 1491 1491 1490 1490 1490 1490 1490 1490 1490 1490 1490 1489 1489 1489 1489 1489 1489 1488 1489 1489 1488 1487 1487 1487 1487 1485 1485 1484 1484 1485 1485 1484 1484 1483 1483 1482 1482 1481 1481 1481 1481 1481 1482 1482 1482 1482 1482 1483 1483 1483 1483 1484 1484 1484 1484 1484 1484 1485 1485 1485 1485 1485 1485 1485 1485 1485 1485 1485 1485 1485 1485 1485 1485 1485 1485 1485 1485 1485
1491 1491 1491 1491 1491 1490 1490 1490 1490 1490 1490 1489 1489 1489 1489 1489 1489 1489 1489 1489 1488 1488 1488 1488 1487 1487 1487 1487 1486 1485 1485 1486 1485 1484 1483 1482 1483 1483 1483 1483 1482 1481 1481 1481 1481 1480 1480 1480 1480 1480 1481 1481 1481 1481 1481 1482 1482 1482 1482 1482 1483 1483 1483 1483 1483 1483 1484 1484 1484 1484 1484 1484 1484 1484 1484 1484 1484 1484 1484 1484 1484 1484 1484 1484 1483 1483
1490 1490 1490 1490 1490 1489 1489 1489 1489 1489 1489 1489 1488 1488 1488 1488 1488 1488 1488 1487 1487 1487 1487 1486 1486 1486 1485 1485 1485 1484 1484 1484 1484 1482 1481 1480 1481 1481 1482 1481 1480 1480 1480 1480 1480 1479 1479 1479 1479 1479 1480 1480 1480 1480 1480 1480 1481 1481 1481 1481 1481 1482 1482 1482 1482 1482 1482 1482 1482 1482 1482 1482 1482 1482 1482 1482 1482 1482 1482 1482 1482 1482 1481 1481 1481 1481
1489 1489 1489 1489 1489 1489 1488 1488 1488 1488 1488 1488 1487 1487 1487 1487 1487 1486 1486 1486 1486 1485 1485 1485 1485 1484 1484 1484 1484 1483 1483 1483 1482 1481 1480 1479 1479 1479 1480 1479 1479 1479 1479 1479 1479 1479 1478 1478 1479 1479 1479 1479 1479 1479 1479 1479 1479 1480 1480 1480 1480 1480 1481 1481 1481 1481 1481 1481 1481 1481 1481 1481 1481 1480 1480 1480 1480 1480 1480 1480 1479 1479 1479 1479 1479 1479
1488 1488 1488 1487 1487 1487 1487 1486 1486 1486 1486 1486 1486 1486 1485 1485 1485 1485 1485 1484 1484 1484 1484 1483 1483 1483 1483 1483 1483 1482 1482 1481 1480 1479 1479 1477 1477 1478 1479 1478 1478 1478 1478 1478 1478 1478 1478 1478 1478 1478 1478 1478 1478 1478 1478 1479 1479 1479 1479 1479 1479 1479 1479 1479 1479 1479 1479 1479 1479 1479 1479 1479 1479 1479 1479 1478 1478 1478 1478 1477 1477 1477 1477 1477 1476 1476
1486 1486 1486 1486 1485 1485 1485 1485 1485 1484 1484 1484 1484 1484 1484 1484 1484 1484 1483 1483 1483 1482 1482 1482 1482 1482 1482 1482 1481 1481 1480 1479 1479 1478 1477 1476 1476 1476 1477 1477 1477 1476 1476 1477 1477 1477 1477 1477 1477 1477 1477 1477 1477 1477 1477 1477 1478 1478 1478 1478 1478 1478 1478 1478 1478 1478 1478 1478 1478 1478 1478 1477 1477 1477 1477 1476 1476 1476 1475 1475 1475 1474 1474 1474 1474 1474
1485 1484 1484 1484 1484 1484 1484 1483 1483 1483 1483 1483 1483 1483 1482 1482 1482 1482 1482 1481 1481 1481 1480 1480 1480 1480 1480 1480 1480 1480 1479 1479 1478 1477 1476 1475 1475 1475 1476 1476 1475 1475 1475 1475 1476 1476 1476 1476 1476 1476 1476 1476 1476 1476 1476 1476 1477 1477 1477 1477 1477 1477 1477 1477 1477 1477 1476 1476 1476 1476 1476 1475 1475 1475 1474 1474 1474 1474 1473 1473 1473 1472 1472 1472 1471 1471
1484 1484 1483 1483 1483 1483 1482 1482 1482 1482 1482 1481 1481 1481 1480 1480 1480 1480 1480 1480 1480 1479 1479 1479 1479 1479 1479 1479 1479 1479 1478 1478 1477 1476 1476 1475 1474 1474 1475 1475 1474 1474 1474 1474 1475 1475 1475 1475 1475 1475 1475 1475 1475 1475 1475 1476 1476 1476 1476 1476 1476 1476 1476 1475 1475 1475 1475 1475 1474 1474 1474 1474 1473 1473 1473 1472 1472 1471 1471 1471 1470 1470 1470 1469 1469 1469
1483 1483 1482 1482 1482 1482 1482 1482 1482 1481 1481 1481 1480 1480 1479 1479 1479 1479 1479 1479 1479 1478 1478 1478 1477 1477 1477 1477 1477 1477 1477 1476 1476 1475 1475 1474 1474 1474 1474 1474 1473 1473 1473 1473 1474 1474 1474 1474 1474 1474 1474 1474 1474 1474 1474 1475 1475 1475 1475 1475 1475 1474 1474 1474 1474 1474 1473 1473 1473 1472 1472 1472 1471 1471 1470 1470 1470 1469 1469 1469 1468 1468 1467 1467 1466 1466
1482 1482 1481 1481 1481 1481 1481 1481 1481 1481 1480 1480 1480 1480 1479 1478 1478 1478 1478 1478 1478 1477 1477 1477 1476 1476 1476 1476 1476 1476 1476 1475 1475 1474 1474 1474 1473 1473 1473 1473 1473 1472 1472 1472 1472 1473 1473 1473 1473 1473 1473 1473 1473 1473 1474 1474 1474 1474 1474 1474 1473 1473 1473 1473 1472 1472 1472 1471 1471 1470 1470 1470 1469 1469 1469 1468 1468 1467 1467 1467 1466 1466 1465 1464 1464 1463
1480 1480 1480 1480 1480 1479 1479 1479 1479 1479 1480 1480 1479 1479 1478 1478 1477 1477 1477 1477 1477 1477 1476 1476 1476 1476 1475 1475 1475 1475 1475 1475 1474 1474 1474 1473 1473 1472 1472 1472 1472 1471 1471 1470 1471 1471 1472 1472 1472 1472 1472 1472 1472 1472 1473 1473 1473 1473 1472 1472 1472 1471 1471 1471 1470 1470 1470 1469 1469 1469 1468 1468 1467 1467 1466 1466 1465 1465 1465 1464 1464 1463 1462 1462 1461 1461
1479 1479 1479 1479 1479 1478 1478 1478 1478 1478 1478 1479 1478 1478 1478 1477 1477 1477 1476 1476 1476 1476 1475 1475 1475 1475 1475 1474 1474 1474 1474 1474 1474 1474 1473 1472 1472 1471 1471 1471 1471 1471 1470 1469 1469 1469 1470 1470 1470 1470 1471 1471 1471 1471 1471 1471 1471 1471 1471 1471 1470 1470 1469 1469 1469 1468 1468 1468 1467 1467 1466 1466 1465 1465 1464 1464 1464 1463 1463 1462 1461 1461 1460 1459 1459 1458
1478 1478 1478 1478 1477 1477 1477 1477 1477 1477 1477 1477 1477 1477 1477 1476 1476 1476 1475 1475 1475 1475 1474 1474 1474 1474 1474 1474 1473 1473 1473 1473 1473 1473 1473 1472 1471 1470 1470 1470 1470 1470 1470 1469 1469 1468 1468 1468 1469 1469 1470 1470 1470 1470 1470 1470 1470 1469 1469 1469 1469 1469 1468 1468 1467 1467 1466 1466 1465 1465 1464 1464 1464 1463 1462 1462 1461 1461 1460 1460 1459 1458 1457 1456 1456 1455
1477 1477 1477 1476 1476 1476 1476 1476 1476 1476 1476 1476 1476 1475 1475 1475 1475 1475 1474 1474 1474 1474 1474 1474 1474 1473 1473 1473 1473 1472 1472 1472 1472 1472 1472 1471 1470 1469 1469 1469 1469 1469 1469 1469 1469 1468 1467 1466 1467 1468 1468 1469 1469 1469 1469 1469 1468 1468 1468 1467 1467 1467 1466 1466 1465 1465 1464 1464 1464 1463 1463 1462 1461 1461 1460 1459 1459 1458 1458 1457 1456 1456 1454 1454 1453 1452
1476 1476 1475 1475 1475 1475 1475 1474 1474 1474 1474 1474 1474 1474 1474 1474 1474 1474 1474 1473 1473 1473 1473 1473 1473 1472 1472 1472 1472 1472 1472 1472 1472 1471 1471 1470 1469 1469 1469 1469 1469 1468 1468 1468 1468 1468 1467 1465 1465 1465 1466 1466 1466 1466 1466 1466 1466 1466 1465 1465 1465 1465 1464 1464 1463 1463 1462 1462 1461 1461 1460 1460 1459 1458 1457 1457 1456 1455 1455 1454 1454 1453 1452 1451 1450 1450
1475 1475 1474 1474 1474 1474 1474 1474 1474 1473 1473 1473 1473 1473 1473 1473 1473 1473 1473 1472 1472 1472 1472 1472 1472 1471 1471 1471 1471 1471 1471 1471 1471 1470 1470 1469 1469 1468 1468 1468 1468 1467 1467 1467 1466 1466 1465 1464 1464 1463 1463 1464 1464 1464 1464 1464 1464 1464 1464 1463 1463 1462 1462 1462 1461 1460 1460 1459 1459 1459 1458 1457 1456 1455 1455 1454 1453 1453 1452 1452 1451 1451 1450 1449 1448 1447
1474 1474 1474 1473 1473 1473 1473 1473 1472 1472 1472 1472 1472 1472 1472 1472 1472 1471 1471 1471 1471 1471 1471 1471 1471 1470 1470 1470 1470 1470 1470 1471 1470 1470 1469 1469 1468 1467 1467 1467 1466 1466 1466 1465 1465 1464 1464 1463 1463 1462 1461 1461 1461 1462 1463 1462 1462 1462 1462 1461 1461 1460 1460 1459 1459 1458 1457 1457 1456 1456 1455 1454 1454 1453 1452 1451 1451 1450 1449 1449 1449 1448 1448 1447 1446 1445
1473 1473 1472 1472 1472 1472 1472 1472 1471 1471 1471 1471 1471 1471 1471 1471 1470 1470 1470 1470 1470 1470 1470 1470 1470 1470 1469 1469 1469 1469 1469 1469 1469 1469 1469 1468 1467 1467 1466 1466 1465 1465 1465 1464 1464 1463 1462 1461 1461 1460 1460 1459 1459 1459 1460 1460 1460 1460 1459 1459 1459 1458 1458 1457 1456 1455 1455 1454 1454 1453 1452 1452 1451 1450 1449 1449 1448 1448 1447 1447 1446 1446 1445 1444 1444 1443
1471 1471 1471 1471 1471 1471 1471 1470 1470 1470 1470 1470 1470 1470 1470 1469 1469 1469 1469 1469 1469 1469 1469 1469 1469 1469 1469 1469 1468 1468 1468 1468 1468 1468 1468 1467 1467 1466 1465 1465 1464 1464 1464 1463 1462 1462 1461 1460 1459 1459 1458 1457 1457 1456 1457 1457 1458 1457 1457 1457 1456 1455 1455 1454 1454 1453 1452 1451 1451 1450 1449 1449 1448 1447 1447 1446 1445 1445 1444 1444 1444 1443 1443 1442 1442 1441
1470 1470 1470 1470 1470 1469 1469 1469 1469 1469 1469 1469 1469 1469 1469 1469 1469 1468 1468 1468 1468 1468 1468 1468 1468 1468 1468 1467 1467 1467 1467 1467 1467 1467 1466 1466 1465 1465 1464 1464 1464 1463 1463 1462 1461 1461 1460 1459 1458 1457 1456 1456 1455 1455 1454 1454 1454 1454 1454 1454 1454 1453 1452 1452 1451 1450 1449 1449 1448 1447 1447 1446 1445 1445 1444 1444 1443 1443 1442 1442 1442 1441 1441 1440 1440 1439
1469 1469 1469 1469 1469 1468 1468 1468 1468 1468 1468 1468 1468 1468 1468 1468 1468 1467 1467 1467 1467 1467 1467 1467 1467 1467 1467 1466 1466 1466 1466 1466 1465 1465 1465 1464 1464 1464 1463 1463 1462 1462 1461 1461 1460 1459 1459 1458 1457 1456 1455 1454 1453 1453 1453 1452 1452 1451 1450 1450 1450 1450 1449 1449 1448 1447 1446 1446 1445 1444 1444 1444 1443 1443 1442 1442 1441 1441 1440 1440 1439 1439 1439 1438 1438 1437
1468 1468 1468 1468 1467 1467 1467 1467 1467 1467 1467 1467 1467 1467 1467 1467 1466 1466 1466 1466 1466 1466 1466 1466 1466 1466 1466 1466 1465 1465 1465 1464 1464 1464 1464 1463 1463 1462 1462 1461 1461 1460 1460 1459 1459 1458 1458 1457 1456 1455 1454 1453 1452 1451 1450 1450 1450 1449 1448 1447 1446 1446 1446 1446 1445 1445 1444 1443 1443 1442 1441 1441 1441 1440 1440 1439 1439 1439 1438 1438 1437 1437 1437 1436 1435 1434
1467 1467 1466 1466 1466 1466 1466 1466 1466 1466 1466 1466 1466 1466 1465 1465 1465 1465 1465 1466 1465 1465 1465 1465 1465 1465 1465 1464 1464 1464 1464 1464 1463 1463 1462 1462 1461 1461 1460 1460 1459 1459 1458 1458 1457 1457 1456 1456 1455 1454 1453 1452 1451 1450 1449 1448 1448 1447 1446 1445 1444 1443 1443 1443 1443 1442 1442 1441 1440 1440 1439 1439 1438 1438 1438 1437 1437 1436 1436 1436 1435 1435 1434 1434 1433 1432
1466 1465 1465 1465 1465 1465 1465 1465 1465 1465 1465 1465 1465 1464 1464 1464 1464 1464 1464 1465 1464 1464 1464 1464 1464 1464 1464 1464 1464 1463 1463 1462 1462 1461 1461 1460 1460 1459 1459 1459 1458 1458 1457 1457 1456 1455 1455 1454 1454 1453 1452 1451 1450 1448 1447 1446 1446 1445 1445 1444 1442 1441 1440 1440 1441 1441 1440 1439 1439 1438 1438 1437 1436 1436 1435 1434 1434 1434 1434 1433 1433 1432 1432 1431 1430 1430
1464 1464 1464 1464 1464 1464 1464 1464 1464 1464 1464 1464 1464 1464 1464 1464 1464 1464 1464 1464 1464 1464 1463 1463 1463 1462 1462 1462 1463 1462 1462 1461 1461 1460 1460 1459 1459 1458 1458 1457 1457 1456 1456 1455 1454 1454 1453 1453 1452 1451 1450 1449 1448 1447 1445 1444 1444 1443 1443 1442 1441 1440 1438 1438 1438 1439 1438 1437 1437 1436 1436 1435 1434 1433 1433 1432 1431 1431 1431 1430 1430 1429 1429 1428 1428 1427
1464 1463 1463 1463 1463 1463 1463 1463 1463 1463 1463 1463 1463 1463 1462 1462 1462 1462 1462 1463 1463 1462 1462 1462 1461 1461 1461 1461 1461 1461 1461 1460 1460 1459 1459 1458 1458 1457 1457 1456 1456 1455 1455 1454 1453 1452 1452 1451 1450 1449 1449 1448 1447 1445 1444 1442 1442 1441 1441 1441 1440 1439 1437 1436 1436 1436 1436 1435 1435 1434 1434 1433 1432 1431 1430 1429 1429 1429 1428 1428 1427 1426 1426 1425 1424 1424
1463 1462 1462 1462 1462 1462 1462 1462 1462 1462 1462 1462 1462 1461 1461 1461 1461 1461 1461 1461 1461 1461 1461 1460 1460 1460 1459 1460 1460 1460 1460 1459 1459 1459 1458 1457 1457 1456 1456 1455 1455 1454 1453 1453 1452 1451 1450 1449 1448 1448 1447 1446 1445 1443 1442 1441 1440 1439 1439 1439 1438 1437 1436 1435 1435 1434 1434 1434 1433 1433 1432 1431 1430 1429 1428 1427 1426 1426 1425 1424 1424 1423 1422 1422 1421 1421
1461 1461 1461 1461 1461 1461 1461 1461 1460 1460 1460 1460 1460 1460 1460 1460 1460 1460 1460 1460 1460 1460 1459 1459 1459 1459 1458 1458 1458 1458 1458 1458 1458 1458 1457 1457 1456 1455 1454 1454 1454 1453 1452 1451 1450 1449 1448 1448 1447 1446 1445 1444 1443 1441 1441 1440 1439 1438 1437 1437 1436 1435 1434 1434 1434 1433 1433 1432 1431 1431 1430 1429 1429 1427 1425 1424 1423 1423 1422 1422 1421 1420 1419 1419 1418 1417
1460 1460 1460 1460 1460 1460 1459 1459 1459 1459 1459 1459 1459 1459 1459 1459 1459 1459 1459 1459 1459 1459 1458 1458 1458 1457 1457 1457 1457 1457 1457 1457 1457 1457 1457 1456 1455 1454 1454 1453 1452 1452 1451 1450 1449 1448 1447 1446 1445 1444 1444 1443 1441 1439 1439 1439 1438 1437 1436 1435 1434 1434 1433 1432 1432 1432 1431 1430 1429 1429 1428 1428 1426 1425 1423 1422 1421 1420 1419 1419 1418 1418 1417 1416 1415 1414
1459 1459 1459 1459 1459 1459 1459 1458 1458 1458 1458 1458 1458 1458 1458 1458 1458 1458 1458 1458 1457 1457 1457 1457 1456 1456 1456 1456 1455 1455 1455 1455 1455 1455 1455 1455 1455 1454 1453 1453 1452 1451 1450 1449 1448 1447 1445 1444 1444 1443 1442 1441 1440 1438 1437 1437 1436 1436 1435 1434 1433 1432 1431 1430 1430 1430 1429 1429 1428 1427 1427 1426 1424 1423 1421 1420 1418 1417 1416 1415 1415 1415 1414 1414 1413 1412
1458 1458 1458 1458 1458 1457 1457 1457 1457 1457 1457 1457 1457 1457 1457 1457 1457 1457 1457 1456 1456 1456 1455 1455 1455 1454 1454 1454 1454 1454 1454 1454 1454 1454 1454 1454 1453 1453 1452 1451 1450 1449 1449 1447 1446 1445 1444 1443 1442 1441 1440 1440 1439 1437 1435 1435 1434 1434 1434 1433 1432 1431 1430 1429 1428 1428 1428 1427 1426 1425 1425 1424 1423 1422 1420 1418 1416 1414 1413 1412 1412 1412 1411 1411 1410 1409
1457 1457 1457 1457 1456 1456 1456 1456 1456 1456 1456 1456 1456 1456 1456 1456 1456 1456 1455 1455 1455 1454 1454 1454 1454 1453 1453 1453 1453 1453 1452 1452 1452 1452 1452 1451 1451 1450 1450 1449 1448 1447 1446 1445 1444 1443 1441 1440 1439 1439 1438 1438 1437 1436 1434 1433 1433 1432 1432 1431 1430 1429 1429 1427 1427 1426 1426 1425 1424 1424 1423 1422 1421 1420 1419 1417 1414 1412 1410 1409 1408 1408 1409 1409 1408 1407
1456 1456 1456 1455 1455 1455 1455 1455 1454 1454 1454 1454 1454 1455 1455 1455 1455 1454 1454 1454 1454 1453 1453 1453 1452 1452 1452 1451 1451 1451 1451 1450 1450 1450 1450 1449 1449 1448 1448 1447 1446 1445 1444 1442 1441 1440 1439 1437 1436 1436 1436 1436 1436 1435 1434 1433 1432 1431 1430 1429 1429 1428 1427 1426 1425 1424 1424 1423 1422 1421 1420 1419 1418 1418 1417 1415 1413 1410 1408 1406 1405 1405 1406 1406 1406 1405